Location: Unspecified
(50.7693°N, 0.0000°E)
Time: 11:22:10
(UTC+00:00)

A-11 Canister half - Pass Details

Date: 26 June 2019
Orbit: 1526 x 1683 km, 47.3° (Epoch: 16 July)

Event Time Altitude Azimuth Distance (km) Brightness Sun altitude
Rises 11:41:08 0° 282° (WNW) 4,680 11.4 62.3°
Reaches altitude 10° 11:48:31 10° 243° (WSW) 3,700 11.3 62.4°
Maximum altitude 11:49:26 10° 238° (WSW) 3,688 11.3 62.5°
Drops below altitude 10° 11:50:20 10° 232° (SW) 3,704 11.4 62.5°
Sets 11:57:49 0° 193° (SSW) 4,712 11.9 62.6°
